{"data":{"norad_id":62569,"intl_designator":"2025-006R","name":"STARLINK-32715","alt_names":[],"object_type":"PAYLOAD","status":"ACTIVE","operator":null,"country":"US","launch_date":"2025-01-10","launch_site_code":"AFETR","launch_vehicle":null,"mission":null,"orbit_class":"UNKNOWN","rcs_meters":null,"size_class":null,"mass_kg":null,"dimensions":null,"purposes":["comms"],"wikipedia_slug":null,"has_3d_model":false,"image_url":null,"decayed_at":null,"tle_current":{"epoch":"2026-09-21T06:54:10.266912Z","epoch_age_seconds":103283,"freshness":"FRESH","line1":"1 62569U 25006R   26264.28761883  .00008667  00000+0  32402-3 0  9994","line2":"2 62569  43.0027 268.2193 0001832 280.4912  79.5734 15.27588920 94776","mean_motion":15.2758892,"eccentricity":0.0001832,"inclination_deg":43.0027,"raan_deg":268.2193,"arg_perigee_deg":280.4912,"mean_anomaly_deg":79.5734,"bstar":0.00032402,"rev_number":9477,"period_min":94.26619826491,"perigee_km":481.76542208107,"apogee_km":484.27935088027,"semimajor_km":6861.1593864807,"source":"CELESTRAK","updated_at":"2026-09-22T09:00:49.629115Z"}}}